Simultaneous Nadir Overpasses (SNOs) Predictions

Prediction of SNOs between AQUA and METOP-A Satellite Orbit:

Table of predicted SNOs for the next 14.0 days since TLE Epoch: 12/12/2015
Index Date (AQUA) Time (AQUA) Lat,Lon (AQUA) SZA (AQUA ) Date (METOP-A) Time (METOP-A) Lat,Lon (METOP-A) SZA (METOP-A ) Distance(km) Time Diff (sec)
1 12/14/2015 08:05:48 -73.83,-127.27 83.03 12/14/2015 08:04:34 -73.82,-127.28 83.03 1.33 74
2 12/14/2015 08:55:16 73.87, 40.28 97.02 12/14/2015 08:55:12 73.89, 40.23 97.05 3.09 4
3 12/14/2015 09:44:43 -73.93,-152.22 82.92 12/14/2015 09:45:53 -73.95,-152.31 82.90 3.37 70
4 12/17/2015 03:40:02 -73.83, -60.82 82.88 12/17/2015 03:38:58 -73.83, -60.85 82.87 0.92 64
5 12/17/2015 04:29:31 73.92, 106.60 97.22 12/17/2015 04:29:36 73.90, 106.66 97.20 2.98 5
6 12/17/2015 05:19:02 -74.19, -86.36 82.50 12/17/2015 05:20:13 -74.15, -85.39 82.56 29.50 71
7 12/19/2015 23:14:15 -73.85, 5.58 82.77 12/19/2015 23:13:21 -73.83, 5.56 82.78 2.14 54
8 12/20/2015 00:03:43 73.90, 173.11 97.28 12/20/2015 00:03:59 73.90, 173.07 97.29 1.32 16
9 12/20/2015 00:53:22 -74.57, -20.82 82.01 12/20/2015 00:54:28 -74.55, -17.97 82.10 84.36 66
10 12/22/2015 18:48:28 -73.84, 72.04 82.75 12/22/2015 18:47:45 -73.83, 71.96 82.76 2.97 43
11 12/22/2015 19:37:56 73.89,-120.44 97.31 12/22/2015 19:38:23 73.90,-120.52 97.31 2.82 27
12 12/25/2015 14:22:41 -73.86, 138.45 82.77 12/25/2015 14:22:08 -73.87, 138.47 82.76 0.96 33
13 12/25/2015 15:12:09 73.91, -54.03 97.29 12/25/2015 15:12:46 73.94, -54.02 97.32 3.01 37




NCC Satellite Simultaneous Nadir Overpasses (SNOs) Prediction Service
